Location: Berlin
(42.3812°N, 71.6370°W)
Time: 22:03:27
(UTC+00:00)

Cosmos 2369 Rocket - Pass Details

Date: 15 November 2025
Orbit: 826 x 853 km, 71.0° (Epoch: 11 December)

Event Time Altitude Azimuth Distance (km) Brightness Sun altitude
Exits shadow 10:28:52 - 334° (NNW) 3,082 4.7 -12.8°
Reaches altitude 10° 10:30:27 10° 333° (NNW) 2,478 4.3 -12.5°
Maximum altitude 10:36:08 77° 248° (WSW) 876 2.2 -11.5°
Drops below altitude 10° 10:41:49 10° 164° (SSE) 2,473 5.1 -10.5°
Sets 10:44:15 0° 162° (SSE) 3,405 5.9 -10.1°
